Regional Weather Roundup
Issued by NWS

Home | Current Version | Previous Version | Text Only | Print | Product List | Glossary Off
Versions: 1 2 3 4 5 6 7 8 9 10 11 12 13 14 15 16 17 18 19 20 21 22 23 24 25 26 27 28 29 30 31 32 33 34 35 36 37 38 39 40 41 42 43 44 45 46 47 48 49 50

000
ASUS45 KCYS 250410
RWRWY

WYOMING REGIONAL WEATHER ROUNDUP
NATIONAL WEATHER SERVICE CHEYENNE WY
900 PM MST SAT JAN 24 2015

NOTE:  "FAIR" INDICATES FEW OR NO CLOUDS BELOW 12,000 FEET
WITH NO SIGNIFICANT WEATHER AND/OR OBSTRUCTIONS TO VISIBILITY.

WYZ001-250500-
YELLOWSTONE NATIONAL PARK

CITY           SKY/WX    TMP DP  RH WIND       PRES   REMARKS
LK YELLOWSTONE   N/A     23  21  92 CALM      30.36F
W YELLOWSTONE  NOT AVBL

$$
WYZ002>013-054>058-071-098>099-250500-
NORTHERN WYOMING

CITY           SKY/WX    TMP DP  RH WIND       PRES   REMARKS
JACKSON        CLOUDY    23  23 100 CALM      30.38S
CODY           FAIR      43  23  45 SW8       30.16R
GREYBULL       FAIR      22  20  92 SE5       30.18R WCI  16
WORLAND        FAIR      24  20  84 S8        30.17R WCI  15
SHERIDAN       MOCLDY    35  31  85 CALM      30.14R
BUFFALO        MIX PCPN  35  32  88 N9        30.14R WCI  28
GILLETTE       FAIR      34  29  82 W15       30.11R WCI  24
HULETT           N/A    N/A N/A N/A MISG        N/A
NEWCASTLE      FAIR      32  28  86 NW8       30.07R WCI  25

$$
WYZ014>020-022>026-101>103-250500-
CENTRAL WYOMING

CITY           SKY/WX    TMP DP  RH WIND       PRES   REMARKS
BIG PINEY      FAIR      31  24  75 NW10      30.32F WCI  22
PINEDALE       FAIR      32  27  80 W21G26    30.29S WCI  20
DUBOIS         FAIR      34  27  75 NW10      30.28S WCI  26
LANDER         FAIR      35  27  72 E8        30.18S WCI  29
RIVERTON       FAIR      41  26  55 N16G26    30.19R
CASPER         FAIR      24  23  96 W5        30.19S WCI  18
DOUGLAS        CLOUDY    34  28  79 NW12      30.15R WCI  25

$$
WYZ021-027>030-104>119-250500-
SOUTHERN WYOMING

CITY           SKY/WX    TMP DP  RH WIND       PRES   REMARKS
EVANSTON       FAIR      27  22  81 W6        30.43R WCI  20
KEMMERER       CLOUDY    30  30 100 W16       30.38S FOG     WCI  19
FORT BRIDGER   FAIR      33  31  91 W16       30.43R WCI  22
ROCK SPRINGS   FAIR      32  27  81 SW25      30.32R WCI  19
DIXON          CLOUDY    31  23  70 W7        30.34F WCI  25
RAWLINS        FAIR      30  24  78 SW17G26   30.22F WCI  18
SARATOGA       CLOUDY    32  25  74 W24       30.23F WCI  19
LARAMIE        CLOUDY    34  23  64 W24       30.15R WCI  21
CHEYENNE       CLOUDY    34  27  75 N12       30.11R WCI  25
TORRINGTON     MOCLDY    38  29  70 NW18G30   30.07S WCI  28
PINE BLUFFS    CLOUDY    34  32  93 NW21G28   30.12F WCI  22

$$



USA.gov is the U.S. government's official web portal to all federal, state and local government web resources and services.